Location: ???? ?????????
(31.1304°N, 31.7111°E)
Time: 09:17:12
(UTC+00:00)

deb Agena D - Visible Passes

Search period start: 16 June 2021 00:00
Search period end: 26 June 2021 00:00
Orbit: 922 x 1239 km, 99.5° (Epoch: 15 June)

Date Brightness Start Highest point End Pass type
(mag) Time Alt. Az. Time Alt. Az. Time Alt. Az.
16 Jun ? 20:24:26 10° NE 20:27:36 20° ENE 20:27:36 20° ENE visible
16 Jun ? 22:08:34 10° N 22:14:30 51° NW 22:14:30 51° NW visible
17 Jun ? 21:18:56 10° NNE 21:24:20 55° NE 21:24:20 55° NE visible
17 Jun ? 23:05:57 10° NNW 23:10:28 19° WNW 23:11:14 19° WNW visible
18 Jun ? 20:30:28 10° NE 20:34:09 23° ENE 20:34:09 23° ENE visible
18 Jun ? 22:14:58 10° N 22:21:04 47° WNW 22:21:04 47° WNW visible
19 Jun ? 21:25:13 10° NNE 21:30:53 61° NE 21:30:53 61° NE visible
19 Jun ? 23:12:37 10° NNW 23:16:45 17° WNW 23:17:47 17° WNW visible
20 Jun ? 20:36:33 10° NE 20:40:42 27° ENE 20:40:42 27° ENE visible
20 Jun ? 22:21:25 10° N 22:27:36 42° WNW 22:27:36 42° WNW visible
21 Jun ? 21:31:31 10° NNE 21:37:25 67° NNE 21:37:25 67° NNE visible
21 Jun ? 23:19:22 10° NNW 23:23:02 15° WNW 23:24:20 14° WNW visible
22 Jun ? 20:42:41 10° NE 20:47:14 31° ENE 20:47:14 31° ENE visible
22 Jun ? 22:27:52 10° N 22:34:06 38° WNW 22:34:08 38° WNW visible
23 Jun ? 19:56:18 10° ENE 19:57:02 11° ENE 19:57:02 11° ENE visible
23 Jun ? 21:37:51 10° NNE 21:43:57 71° N 21:43:57 71° N visible
23 Jun ? 23:26:14 10° NW 23:29:18 13° WNW 23:30:51 12° WNW visible
24 Jun ? 20:48:50 10° NNE 20:53:45 35° ENE 20:53:45 35° ENE visible
24 Jun ? 22:34:20 10° N 22:40:26 34° WNW 22:40:39 34° WNW visible
25 Jun ? 20:01:48 10° ENE 20:03:33 13° ENE 20:03:33 13° ENE visible
25 Jun ? 21:44:11 10° N 21:50:28 71° NNW 21:50:28 71° NNW visible
25 Jun ? 23:33:19 10° NW 23:35:34 12° WNW 23:37:22 11° WNW visible
